Napa County, CA

1:55 AM PDT on May 28, 2017 (GMT -0700)
Napa County

Weather History for KAPC - June, 2012

Change the Weather History Date:

Tuesday, June 12, 2012

  Actual Average Record
Temperature  
Mean Temperature 72 °F 64 °F  
Max Temperature 91 °F 78 °F 94 °F (2008)
Min Temperature 52 °F 49 °F 43 °F (2009)
Degree Days  
Heating Degree Days 0    
Month to date heating degree days 29  
Since 1 June heating degree days 29  
Since 1 July heating degree days 3133  
Cooling Degree Days 7    
Month to date cooling degree days 24  
Year to date cooling degree days 38  
Since 1 June cooling degree days 24  
Growing Degree Days 22 (Base 50)    
Moisture  
Dew Point 53 °F    
Average Humidity 58    
Maximum Humidity 86    
Minimum Humidity 30    
Precipitation  
Precipitation 0.00 in - 0.00 in (2017)
Month to date precipitation 0.05  
Year to date precipitation 13.77  
Since 1 July precipitation 17.35  
Sea Level Pressure  
Sea Level Pressure 29.88 in    
Wind  
Wind Speed 9 mph (SW)    
Max Wind Speed 20 mph    
Max Gust Speed 25 mph    
Visibility 10 miles    
Events      
T = Trace of Precipitation, MM = Missing Value Source: NWS Daily Summary

Daily Weather History Graph

Daily Weather History Graph

Search for Another Location

Airport or City:

Trip Planner

Search our weather history database for the weather conditions in past years. The results will help you decide how hot, cold, wet, or windy it might be!

Date:

Astronomy

Jun. 12, 2012 Rise Set
Actual Time 5:45 AM PDT 8:33 PM PDT
Civil Twilight 5:13 AM PDT 9:04 PM PDT
Nautical Twilight 4:34 AM PDT 9:44 PM PDT
Astronomical Twilight 3:49 AM PDT 10:29 PM PDT
Moon 1:29 AM PDT (6/12) 2:31 PM PDT (6/12)
Length of Visible Light 15h 50m
Length of Day
14h 47m
Last Quarter, 37% of the Moon is Illuminated
Jun 12
Last Quarter
Jun 19
New
Jun 26
First Quarter
Jul 3
Full
Jul 10
Last Quarter

Hourly Weather History & Observations

Time (PDT) Temp. Heat Index Dew Point Humidity Pressure Visibility Wind Dir Wind Speed Gust Speed Precip Events Conditions
12:54 AM 59.0 °F - 53.1 °F 81% 29.91 in 9.0 mi SSW 9.2 mph - N/A   Clear
1:54 AM 59.0 °F - 53.1 °F 81% 29.91 in 9.0 mi SSW 9.2 mph - N/A   Clear
2:54 AM 57.9 °F - 53.1 °F 84% 29.91 in 9.0 mi SW 9.2 mph - N/A   Clear
3:54 AM 57.0 °F - 52.0 °F 83% 29.90 in 9.0 mi West 4.6 mph - N/A   Clear
4:54 AM 54.0 °F - 48.9 °F 83% 29.91 in 10.0 mi Calm Calm - N/A   Clear
5:54 AM 55.0 °F - 50.0 °F 83% 29.92 in 8.0 mi Calm Calm - N/A   Clear
6:54 AM 57.0 °F - 53.1 °F 87% 29.93 in 6.0 mi Calm Calm - N/A   Clear
7:54 AM 61.0 °F - 52.0 °F 72% 29.94 in 9.0 mi SW 4.6 mph - N/A   Clear
8:54 AM 64.9 °F - 52.0 °F 63% 29.94 in 10.0 mi South 3.5 mph - N/A   Clear
9:54 AM 68.0 °F - 53.1 °F 59% 29.94 in 10.0 mi Variable 3.5 mph - N/A   Clear
10:54 AM 72.0 °F - 53.1 °F 51% 29.93 in 10.0 mi Variable 3.5 mph - N/A   Clear
12:54 PM 80.1 °F 80.1 °F 55.0 °F 42% 29.91 in 10.0 mi SSW 13.8 mph - N/A   Clear
1:54 PM 82.9 °F 82.1 °F 55.9 °F 39% 29.89 in 10.0 mi SSW 15.0 mph - N/A   Clear
2:54 PM 84.9 °F 84.2 °F 57.9 °F 40% 29.87 in 10.0 mi South 16.1 mph - N/A   Clear
3:54 PM 91.0 °F 88.9 °F 55.0 °F 29% 29.85 in 10.0 mi WSW 15.0 mph - N/A   Clear
4:01 PM 89.6 °F 87.3 °F 53.6 °F 29% 29.87 in 10.0 mi WSW 16.1 mph - N/A   Clear
4:54 PM 89.1 °F 87.3 °F 55.9 °F 32% 29.83 in 10.0 mi SW 15.0 mph 24.2 mph N/A   Clear
5:54 PM 82.9 °F 81.9 °F 54.0 °F 37% 29.82 in 10.0 mi WSW 13.8 mph 23.0 mph N/A   Clear
6:54 PM 79.0 °F - 53.1 °F 40% 29.83 in 10.0 mi WSW 13.8 mph - N/A   Clear
7:54 PM 73.0 °F - 54.0 °F 51% 29.83 in 10.0 mi WSW 11.5 mph - N/A   Clear
8:54 PM 66.9 °F - 53.1 °F 61% 29.84 in 10.0 mi SW 5.8 mph - N/A   Clear
9:54 PM 64.0 °F - 53.1 °F 67% 29.84 in 10.0 mi WSW 15.0 mph - N/A   Clear
10:54 PM 62.1 °F - 52.0 °F 70% 29.86 in 10.0 mi WSW 4.6 mph - N/A   Clear
11:54 PM 59.0 °F - 52.0 °F 78% 29.85 in 10.0 mi WSW 15.0 mph 20.7 mph N/A   Clear